Vertical_Velocity
-2 0 2 2 8 5 10 24 44 36 -7 32 9 8 9 14 2 2 1 -2 -1 -0 -2 -2 3 -1 2 -3 0 -0 -0 -2
-1 2 2 0 7 3 5 5 -11 5 1 18 13 -21 9 17 7 6 5 -2 2 0 1 -2 0 0 -5 2 -7 3 2 1
-3 -2 2 0 -1 -1 7 1 2 -7 -29 -8 -4 11 -22 12 7 10 9 5 -5 -3 -0 -1 4 5 -1 2 -1 3 -4 3
-1 -2 0 -1 -1 -1 1 3 1 6 7 0 -16 -6 -22 -15 12 7 7 9 0 -1 1 1 3 -1 -1 -1 1 -1 -0 2
2 -2 1 0 1 1 0 -2 2 4 7 -3 7 -4 3 -6 27 -0 1 22 1 -3 -3 -4 -2 -3 0 1 -1 -4 2 -2
1 -1 1 1 -2 4 -1 -2 1 3 0 1 4 3 -15 -12 -1 1 2 8 2 -3 0 1 -1 -1 4 -6 -2 -1 2 -1
0 -4 2 0 -1 2 3 -0 0 -0 19 5 2 1 3 -1 -3 -1 4 5 6 -5 -3 -5 2 2 -0 -2 -1 2 -3 2
-2 -3 2 -3 -1 -1 -1 1 4 2 1 1 4 -2 0 3 -1 -3 1 7 3 7 -10 -3 -2 -4 2 -2 3 1 -2 3
-2 -2 -2 -1 -1 -4 1 -0 4 -0 -1 4 2 -3 4 5 -2 -1 -2 5 8 12 6 6 -2 2 4 -3 1 2 -3 -1
0 -2 0 -2 -0 -3 -5 -1 2 3 2 3 3 5 1 2 -1 0 1 6 4 -2 5 5 2 1 -5 -4 3 0 -1 -1
-1 0 -1 -3 0 -3 -1 -0 3 2 6 21 7 -11 -3 3 5 -0 5 6 1 -1 -2 1 3 -2 -1 5 0 1 1 -1
-1 2 -1 -1 2 -1 -2 3 2 1 -1 1 0 3 3 1 4 5 2 1 8 0 1 8 2 -6 3 4 6 4 -1 1
-1 1 -1 -2 -3 -2 2 -4 -2 3 1 6 0 -5 1 6 4 3 -0 4 5 9 8 8 1 2 -3 8 6 3 4 5
-1 -1 1 -1 0 -2 -4 -2 -4 2 4 2 3 1 4 -0 1 1 -1 3 -1 1 -0 -9 7 1 -0 3 1 7 4 2
-3 -2 1 1 -1 -1 1 -0 2 1 -1 5 4 0 3 2 8 -3 -0 7 -1 1 5 -2 -6 0 4 -13 -2 -4 -1 -3
-1 -3 0 -0 2 -2 -2 -4 -0 0 -3 -0 -2 1 -1 1 1 3 -1 2 1 -15 6 -1 6 -4 5 11 7 -8 -8 -4
-1 -3 0 1 0 -1 -2 0 -1 1 4 2 2 5 -2 -2 -0 1 -3 -5 6 -2 -1 2 -0 -1 -4 4 1 -8 -1 -1
-1 -2 -3 0 1 2 0 -1 -0 0 1 3 -1 5 1 -0 -2 0 2 2 4 7 8 7 4 0 2 -7 5 -14 -9 -9
-0 -0 -3 -1 -1 -2 3 0 2 1 -3 0 -1 2 -1 -7 -9 -3 -1 -1 5 5 -4 6 -1 4 1 -2 -7 -6 -5 -17
-1 -2 -2 -2 -3 -3 -4 5 -2 -3 2 -2 -2 -1 -0 10 -2 -4 -3 4 -1 -8 -0 -3 -5 -10 8 5 -2 -0 1 1
Height
1465 1466 1468 1469 1471 1474 1478 1481 1480 1475 1483 1486 1494 1493 1495 1501 1505 1508 1510 1514 1517 1520 1524 1526 1530 1533 1536 1538 1542 1543 1544 1546
1463 1464 1465 1467 1469 1472 1475 1477 1479 1466 1485 1488 1492 1496 1500 1504 1509 1512 1511 1513 1517 1521 1525 1527 1532 1534 1537 1541 1543 1543 1545 1546
1460 1461 1463 1465 1468 1471 1473 1474 1476 1476 1483 1485 1491 1495 1501 1504 1510 1512 1513 1513 1518 1523 1526 1530 1534 1536 1539 1541 1543 1544 1545 1546
1458 1459 1460 1462 1464 1466 1470 1472 1473 1475 1479 1485 1487 1492 1500 1503 1509 1511 1514 1515 1518 1523 1527 1531 1534 1536 1539 1542 1544 1544 1546 1546
1455 1456 1457 1459 1461 1464 1465 1468 1471 1473 1477 1482 1487 1489 1492 1503 1508 1510 1514 1517 1517 1523 1527 1530 1533 1536 1540 1542 1544 1545 1547 1547
1453 1454 1454 1456 1458 1460 1463 1466 1468 1470 1474 1478 1484 1486 1491 1498 1506 1509 1513 1516 1517 1522 1526 1530 1534 1537 1541 1543 1545 1547 1548 1550
1450 1451 1452 1453 1455 1458 1461 1463 1466 1469 1472 1476 1480 1485 1489 1493 1501 1506 1510 1514 1517 1522 1525 1529 1533 1538 1541 1544 1547 1548 1551 1552
1447 1448 1450 1452 1454 1456 1458 1461 1463 1466 1469 1474 1478 1483 1486 1490 1497 1503 1508 1513 1517 1520 1524 1529 1533 1538 1541 1544 1547 1549 1552 1554
1443 1445 1447 1450 1452 1453 1455 1459 1461 1464 1467 1471 1475 1479 1483 1487 1494 1500 1506 1512 1516 1522 1525 1529 1534 1539 1542 1545 1548 1550 1553 1555
1441 1442 1444 1447 1450 1452 1453 1456 1458 1461 1463 1466 1471 1475 1481 1485 1493 1499 1505 1511 1514 1519 1526 1528 1533 1536 1541 1545 1548 1549 1552 1554
1439 1440 1441 1444 1448 1450 1453 1454 1456 1458 1460 1458 1463 1472 1478 1487 1492 1498 1503 1508 1512 1518 1524 1529 1532 1537 1542 1545 1548 1550 1552 1553
1437 1438 1439 1442 1446 1449 1452 1454 1456 1458 1461 1462 1466 1475 1483 1488 1492 1497 1503 1507 1510 1516 1523 1528 1531 1537 1542 1545 1548 1550 1552 1553
1435 1436 1437 1440 1444 1447 1450 1453 1456 1459 1463 1466 1470 1475 1481 1487 1492 1498 1502 1507 1510 1515 1521 1526 1530 1536 1540 1545 1548 1550 1552 1554
1433 1434 1436 1439 1442 1445 1448 1452 1455 1459 1463 1468 1471 1474 1479 1485 1491 1496 1502 1506 1510 1514 1518 1523 1530 1533 1537 1540 1545 1549 1550 1552
1430 1433 1435 1437 1440 1443 1447 1451 1455 1458 1461 1465 1469 1472 1478 1482 1489 1494 1499 1504 1509 1512 1517 1522 1526 1531 1534 1536 1541 1544 1548 1550
1428 1431 1433 1435 1437 1441 1444 1448 1451 1454 1457 1461 1465 1469 1475 1479 1487 1491 1496 1502 1507 1513 1517 1520 1525 1527 1532 1535 1537 1538 1543 1547
1425 1429 1431 1432 1434 1438 1442 1445 1449 1451 1454 1458 1463 1464 1472 1477 1484 1489 1495 1500 1506 1510 1515 1517 1521 1524 1527 1530 1533 1536 1541 1542
1422 1425 1428 1431 1433 1435 1439 1442 1446 1448 1452 1454 1458 1462 1468 1474 1480 1486 1491 1497 1502 1506 1512 1514 1517 1522 1525 1527 1529 1531 1536 1538
1418 1422 1425 1428 1431 1434 1438 1440 1443 1446 1449 1451 1455 1459 1463 1470 1476 1482 1487 1492 1497 1500 1505 1508 1512 1518 1520 1522 1526 1529 1531 1533
1415 1419 1422 1426 1429 1432 1436 1439 1441 1444 1447 1450 1454 1458 1462 1467 1471 1478 1482 1487 1492 1498 1502 1504 1508 1511 1517 1518 1521 1523 1525 1525